Погода в Сыктывкаре

Погода в Сыктывкаре : погода сейчас, прогноз погоды и архив. Всё, что Вы хотите узнать о погоде в Сыктывкаре!

Поиск расширенной информации на нашем сайте:

Другие новости

Новости СМИ2

Главная страница сайта

Новости сайта

03.07.2017

Напоминаем, что на нашем специализированном сайте Метеоцентр.Азия вы можете получить высокодетализированные автоматические прогнозы погоды по пунктам России, СНГ и мира в авиационном формате (включающие направление и скорость ветра, видимость, явления погоды, количество и форму облачности, нижнюю и верхнюю границу облачности).


Погода в Сыктывкаре - сегодня

Время (UTC), дата Ветер
(°,м/с) 
Видим.   Явления Облачность Т
(°С)
Тd
(°С)
f(%) Тe
(°С)
Pmin
(гПа)
dP
(гПа)
Po
(мм)
O2
(г/м3)
Тmin Tmax R s Состояние
почвы
09 20.02.18 050 (СВ) 10 км  слаб. снег  10/0 средняя, верхняя 
[Ac As|Ci fib]
-9 -11 85 -9  1015.2  -0.3  750  314           
12 20.02.18 020 (С) 10 км  слаб. снег  10/0 средняя, верхняя 
[Ac As|Cs]
-8.2 -9.7 89 -8  1015  -0.2  750  312           
15 20.02.18 350 (С) 10 км  слаб. снег  10/6 270 м средняя 
[Frnb|As op]
-11 -11.8 94 -11  1015  0.1  750  316    -7.5     
18 20.02.18 010 (С) 10 км  слаб. снег  9/6 360 м средняя 
[Sc|As trans]
-14.1 -14.9 94 -14  1014.9  -0.3  750  320           
21 20.02.18 010 (С) 10 км  слаб. снег  10/8 360 м средняя 
[Sc|As op]
-14.7 -15.7 92 -15  1014.6  -0.4  749  320           
00 21.02.18 010 (С) 10 км  слаб. снег  10/10 330 м 
[Sc]
-16.2 -17.3 91 -19  1014.6  0.1  749  322           
03 21.02.18 010 (С) 10 км  слаб. снег  10/10 400 м 
[Sc]
-17.5 -18.9 89 -18  1014.4  -0.2  749  324  -17.7    76  неравномерный
сухой снег
100% 
06 21.02.18 360 (С) 10 км  слаб. снег  10/0 средняя 
[As trans]
-17.4 -19 87 -18  1014.7  0.3  749  324  -18.1         
09 21.02.18 330 (СЗ) 10 км  слаб. снег  10/4 300 м средняя 
[Sc|As trans]
-13.9 -16.6 80 -16  1014.6  0.1  749  320           
12 21.02.18 340 (С) 20000 м  {снег}  10/0 средняя, верхняя 
[Ac lent|Cs]
-14 -16.4 82 -16  1015.2  0.6  750  320           
15 21.02.18 350 (С) 10 км  слаб. снег  8/0 средняя, верхняя 
[Ac As|Cs]
-16.8 -18 90 -17  1016.2  0.8  750  324    -13.2  0.6     
18 21.02.18 010 (С) 10 км  слаб. снег  8/6 360 м средняя 
[Sc|As op]
-18.2 -19.5 90 -18  1016.7  0.4  751  326           
21 21.02.18 360 (С) 10 км  слаб. снег  6/0 средняя 
[As op]
-19.6 -21 89 -20  1017.3  0.5  751  328           
00 22.02.18 360 (С) 10 км  слаб. снег  4/0 средняя 
[As op]
-20.5 -22.1 87 -21  1017.9  0.5  752  329           
03 22.02.18 тихо ()   10 км  слаб. снег  6/0 средняя 
[As op]
-23 -24.8 85 -23  1018.4  0.4  752  333  -23    0.2  77  неравномерный
сухой снег
100% 
06 22.02.18 310 (СЗ) 10 км  снежные кристаллы  8/0 средняя, верхняя 
[As op|Cs]
-21.3 -23.3 84 -22  1018.4  0.1  752  330  -23.4         
09 22.02.18 300 (СЗ) 10 км  слаб. снег  9/0 средняя, верхняя 
[As op|Cs]
-16.8 -19.3 81 -17  1017.8  -0.3  752  324           
12 22.02.18 310 (СЗ) 20000 м  {снег}  8/0 верхняя 
[Cs]
-13.7 -17.1 75 -14  1017.9  0.3  752  320           
15 22.02.18 310 (СЗ) 10 км  слаб. снег  10/6 400 м верхняя 
[Sc|Cs]
-16.6 -18.1 88 -17  1018.2  0.1  752  324    -13.6  0.5     
18 22.02.18 310 (СЗ) 10 км  слаб. снег  8/0 средняя, верхняя 
[As op|Cs]
-17.8 -19.3 88 -18  1018.7  0.4  752  326           
21 22.02.18 340 (С) 10 км  слаб. снег  10/0 средняя 
[Ac As]
-17.9 -19.5 87 -18  1018.8  0.1  752  326           
00 23.02.18 330 (СЗ) 10 км  слаб. снег  10/0 средняя 
[Ac As]
-18.7 -20.5 86 -19  1019  0.2  752  327           
03 23.02.18 350 (С) 10 км  слаб. снег  10/0 средняя 
[Ac As]
-18.8 -20.7 85 -19  1019.3  0.3  753  327  -18.9    0.5  75  неравномерный
сухой снег
100% 
06 23.02.18 020 (С) 10 км  слаб. снег  10/0 средняя 
[As op]
-18.6 -20.8 83 -19  1020  0.6  753  327  -19.4         
09 23.02.18 340 (С) 20000 м  {снег}  3/1 600 м верхняя 
[Sc|Ci fib]
-16.1 -19.8 73 -16  1020.3  0.5  754  324           
Время (UTC), дата Ветер
(°,м/с) 
Видим.   Явления Облачность Т
(°С)
Тd
(°С)
f(%) Тe
(°С)
Pmin
(гПа)
dP
(гПа)
Po
(мм)
O2
(г/м3)
Тmin Tmax R s Состояние
почвы

Для получения пояснительной информации подведите курсор к названию столбца.

ПОГОДА в Сыктывкаре - архив

Всё, что Вы хотите узнать о погоде в Сыктывкаре - удобно и подробно!

Выберите нужную дату (начиная с 1 января 2015* года) и нажмите кнопку "Найти".
Будут отображены архивные сводки погоды по пункту Сыктывкар, начиная с указанной даты.


Отображать данные в формате CSV (для использования в таблицах Excel)


Внимание! Наш архив погоды предназначен исключительно для личного некоммерческого использования в познавательных целях. Если Вам необходимы официальные справки о состоянии погоды (для производственных, юридических, коммерческих и т.п. целей), обращайтесь в органы Росгидромета.

*Примечание: данная дата относится к архиву по метеостанциям СССР (Россия, СНГ, Балтия).
Архив по метеостанциям Зарубежной Европы и Азии (кроме Китая) хранится 10 дней, по другим регионам земного шара (Китай, Африка, Америка, Австралия, Океания) - 1 день.

Сыктывкар - район местоположения метеостанции


Название, широта, долгота, высота метеостанции:
Сыктывкар (город) 61.7°ш. 50.8°д. 104 м над ур. моря [Российская Федерация]

Дополнительная информация

В oтличие oт бoльшинства пoгoдных сайтoв мы публикуем пoдрoбную метеoинфoрмацию в детальнoм прoфессиoнальнoм фoрмате.

Характеристики температуры и влажнoсти вoздуха измеряются на высoте 2 м в тени вдали oт зданий и деревьев.
Скoрoсть ветра измеряется на высoте 10 м (на урoвне рoста челoвека скoрoсть ветра ниже в 1.5-2 раза). Если метеoстанция нахoдится в гoрoде или в лесу, тo скoрoсть ветра занижена на 2-4 м/с пo сравнению с oткрытым местoм. Скoрoсть ветра над акватoриями крупных рек и oзёр, а также на вершинах хoлмoв на 2-5 м/с выше, чем в oбычных услoвиях.
Атмoсфернoе давление в разных тoчках местнoсти мoжет значительнo oтличаться oт давления на метеoстанции, в зависимoсти oт услoвий рельефа (при пoдъёме на 10 м давление пoнижается примернo на 1 мм рт.ст.).